| time (UTC) | temp F | wind direction | speed MPH | gust MPH | rain 1hr in | rain 24hr in | rain mn in | humidity % | barometer mb |
| 20260905103105 | 66 | 35 | 2.0 | 4.0 | 0.00 | 0.01 | 0.00 | 83 | 1009.2 |
| 20260905102906 | 66 | 36 | 2.0 | 4.0 | 0.00 | 0.01 | 0.00 | 83 | 1009.2 |
| 20260905102605 | 66 | 38 | 1.0 | 4.0 | 0.00 | 0.01 | 0.00 | 84 | 1009.1 |
| 20260905102405 | 66 | 38 | 1.0 | 3.0 | 0.00 | 0.01 | 0.00 | 84 | 1009.2 |
| 20260905102103 | 66 | 38 | 1.0 | 3.0 | 0.00 | 0.01 | 0.00 | 84 | 1009.2 |
| 20260905101910 | 66 | 38 | 1.0 | 3.0 | 0.00 | 0.01 | 0.00 | 84 | 1009.2 |
| 20260905101629 | 67 | 38 | 1.0 | 3.0 | 0.00 | 0.01 | 0.00 | 83 | 1009.0 |
| 20260905101415 | 67 | 38 | 1.0 | 3.0 | 0.00 | 0.01 | 0.00 | 83 | 1009.0 |
| 20260905101114 | 67 | 38 | 1.0 | 3.0 | 0.00 | 0.01 | 0.00 | 83 | 1009.0 |
| 20260905100915 | 67 | 38 | 0.0 | 3.0 | 0.00 | 0.01 | 0.00 | 84 | 1009.0 |
| 20260905100614 | 67 | 38 | 1.0 | 3.0 | 0.00 | 0.01 | 0.00 | 84 | 1009.0 |
| 20260905100414 | 67 | 38 | 1.0 | 3.0 | 0.00 | 0.01 | 0.00 | 84 | 1009.0 |
| 20260905100120 | 67 | 41 | 1.0 | 2.0 | 0.00 | 0.01 | 0.00 | 83 | 1008.9 |
| 20260905095919 | 67 | 41 | 1.0 | 3.0 | 0.00 | 0.01 | 0.00 | 83 | 1008.9 |
| 20260905095618 | 67 | 41 | 1.0 | 4.0 | 0.00 | 0.01 | 0.00 | 83 | 1008.9 |
| 20260905095419 | 67 | 41 | 1.0 | 4.0 | 0.00 | 0.01 | 0.00 | 83 | 1008.9 |
| 20260905095115 | 67 | 41 | 1.0 | 4.0 | 0.00 | 0.01 | 0.00 | 83 | 1008.9 |
| 20260905094916 | 67 | 42 | 2.0 | 4.0 | 0.00 | 0.01 | 0.00 | 83 | 1008.9 |
| 20260905094621 | 67 | 1 | 1.0 | 3.0 | 0.00 | 0.01 | 0.00 | 83 | 1008.9 |
| 20260905094422 | 67 | 1 | 1.0 | 3.0 | 0.00 | 0.01 | 0.00 | 82 | 1008.9 |
| 20260905094120 | 67 | 1 | 2.0 | 3.0 | 0.00 | 0.01 | 0.00 | 82 | 1008.9 |
| 20260905093922 | 67 | 1 | 2.0 | 3.0 | 0.00 | 0.01 | 0.00 | 82 | 1008.9 |
| 20260905093620 | 67 | 360 | 1.0 | 3.0 | 0.00 | 0.01 | 0.00 | 82 | 1008.9 |
| 20260905093426 | 67 | 360 | 1.0 | 3.0 | 0.00 | 0.01 | 0.00 | 81 | 1008.8 |
| 20260905093107 | 67 | 360 | 2.0 | 3.0 | 0.00 | 0.01 | 0.00 | 81 | 1008.9 |
| 20260905092907 | 67 | 360 | 1.0 | 2.0 | 0.00 | 0.01 | 0.00 | 81 | 1008.9 |
| 20260905092604 | 68 | 360 | 0.0 | 1.0 | 0.00 | 0.01 | 0.00 | 80 | 1008.8 |
| 20260905092405 | 68 | 360 | 0.0 | 1.0 | 0.00 | 0.01 | 0.00 | 80 | 1008.8 |
| 20260905092124 | 68 | 360 | 0.0 | 1.0 | 0.00 | 0.01 | 0.00 | 80 | 1008.9 |
| 20260905091923 | 68 | 360 | 0.0 | 1.0 | 0.00 | 0.01 | 0.00 | 80 | 1008.8 |
| 20260905091620 | 68 | 360 | 0.0 | 2.0 | 0.00 | 0.01 | 0.00 | 79 | 1008.8 |
| 20260905091420 | 68 | 360 | 0.0 | 2.0 | 0.00 | 0.01 | 0.00 | 79 | 1008.8 |
| 20260905091124 | 68 | 360 | 1.0 | 4.0 | 0.00 | 0.01 | 0.00 | 79 | 1008.9 |
| 20260905090925 | 68 | 360 | 0.0 | 4.0 | 0.00 | 0.01 | 0.00 | 79 | 1008.9 |
| 20260905090604 | 69 | 360 | 2.0 | 4.0 | 0.00 | 0.01 | 0.00 | 78 | 1008.8 |
| 20260905090405 | 69 | 360 | 0.0 | 3.0 | 0.00 | 0.01 | 0.00 | 78 | 1008.9 |
| 20260905090122 | 69 | 356 | 0.0 | 2.0 | 0.00 | 0.01 | 0.00 | 78 | 1008.8 |
| 20260905085930 | 69 | 356 | 0.0 | 2.0 | 0.00 | 0.01 | 0.00 | 78 | 1008.8 |
| 20260905085607 | 69 | 356 | 1.0 | 2.0 | 0.00 | 0.01 | 0.00 | 77 | 1008.8 |
| 20260905085429 | 69 | 356 | 0.0 | 2.0 | 0.00 | 0.01 | 0.00 | 77 | 1008.8 |
| 20260905085112 | 69 | 356 | 1.0 | 4.0 | 0.00 | 0.01 | 0.00 | 77 | 1008.8 |
| 20260905084913 | 69 | 356 | 0.0 | 4.0 | 0.00 | 0.01 | 0.00 | 77 | 1008.8 |
| 20260905084610 | 69 | 356 | 2.0 | 4.0 | 0.00 | 0.01 | 0.00 | 77 | 1008.8 |
| 20260905084411 | 70 | 356 | 1.0 | 3.0 | 0.00 | 0.01 | 0.00 | 76 | 1008.8 |
| 20260905084106 | 70 | 356 | 0.0 | 3.0 | 0.00 | 0.01 | 0.00 | 76 | 1008.8 |
| 20260905083913 | 70 | 356 | 1.0 | 3.0 | 0.00 | 0.01 | 0.00 | 76 | 1008.8 |
| 20260905083611 | 70 | 356 | 1.0 | 3.0 | 0.00 | 0.01 | 0.00 | 76 | 1008.8 |
| 20260905083410 | 70 | 356 | 1.0 | 3.0 | 0.00 | 0.01 | 0.00 | 76 | 1008.8 |
| 20260905083109 | 70 | 356 | 1.0 | 4.0 | 0.00 | 0.01 | 0.00 | 75 | 1008.9 |
| 20260905082910 | 70 | 356 | 2.0 | 4.0 | 0.00 | 0.01 | 0.00 | 75 | 1008.8 |
| 20260905082608 | 70 | 360 | 2.0 | 4.0 | 0.00 | 0.01 | 0.00 | 75 | 1008.8 |
| 20260905082435 | 70 | 360 | 1.0 | 4.0 | 0.00 | 0.01 | 0.00 | 74 | 1008.8 |
| 20260905082112 | 71 | 2 | 1.0 | 6.0 | 0.00 | 0.01 | 0.00 | 74 | 1008.8 |
| 20260905081912 | 71 | 1 | 2.0 | 6.0 | 0.00 | 0.01 | 0.00 | 74 | 1008.8 |
| 20260905081616 | 71 | 2 | 2.0 | 10.0 | 0.00 | 0.01 | 0.00 | 74 | 1008.8 |
| 20260905081417 | 71 | 2 | 2.0 | 10.0 | 0.00 | 0.01 | 0.00 | 74 | 1008.8 |
| 20260905081143 | 71 | 6 | 3.0 | 10.0 | 0.00 | 0.01 | 0.00 | 74 | 1008.8 |
| 20260905080923 | 71 | 2 | 2.0 | 10.0 | 0.00 | 0.01 | 0.00 | 74 | 1008.8 |
| 20260905080620 | 71 | 8 | 3.0 | 8.0 | 0.00 | 0.01 | 0.00 | 74 | 1008.8 |
| 20260905080420 | 71 | 3 | 4.0 | 8.0 | 0.00 | 0.01 | 0.00 | 74 | 1008.8 |
| 20260905080146 | 71 | 27 | 3.0 | 8.0 | 0.00 | 0.01 | 0.00 | 74 | 1008.8 |
| 20260905075906 | 71 | 5 | 3.0 | 8.0 | 0.00 | 0.01 | 0.00 | 74 | 1008.9 |
| 20260905075604 | 71 | 2 | 2.0 | 9.0 | 0.00 | 0.01 | 0.00 | 74 | 1008.8 |
| 20260905075405 | 71 | 356 | 3.0 | 9.0 | 0.00 | 0.01 | 0.00 | 74 | 1008.8 |
| 20260905075123 | 71 | 360 | 3.0 | 9.0 | 0.00 | 0.01 | 0.00 | 74 | 1008.8 |
| 20260905074904 | 71 | 10 | 3.0 | 9.0 | 0.00 | 0.01 | 0.00 | 74 | 1008.8 |
| 20260905074628 | 71 | 1 | 1.0 | 4.0 | 0.00 | 0.01 | 0.00 | 74 | 1008.8 |
| 20260905074408 | 71 | 1 | 2.0 | 4.0 | 0.00 | 0.01 | 0.00 | 74 | 1008.8 |
| 20260905074107 | 71 | 12 | 1.0 | 3.0 | 0.00 | 0.01 | 0.00 | 75 | 1008.9 |
| 20260905073907 | 71 | 12 | 0.0 | 6.0 | 0.00 | 0.01 | 0.00 | 74 | 1008.9 |
| 20260905073605 | 71 | 12 | 1.0 | 6.0 | 0.00 | 0.01 | 0.00 | 74 | 1008.9 |
| 20260905073406 | 71 | 12 | 1.0 | 6.0 | 0.00 | 0.01 | 0.00 | 74 | 1008.9 |
| 20260905073110 | 71 | 1 | 2.0 | 6.0 | 0.00 | 0.01 | 0.00 | 74 | 1008.9 |
| 20260905072911 | 71 | 356 | 1.0 | 2.0 | 0.00 | 0.01 | 0.00 | 74 | 1008.9 |
| 20260905072609 | 71 | 356 | 1.0 | 2.0 | 0.00 | 0.01 | 0.00 | 73 | 1008.8 |
| 20260905072410 | 71 | 356 | 0.0 | 2.0 | 0.00 | 0.01 | 0.00 | 73 | 1008.9 |
| 20260905072136 | 71 | 356 | 0.0 | 5.0 | 0.00 | 0.01 | 0.00 | 73 | 1008.9 |
| 20260905071916 | 71 | 356 | 0.0 | 5.0 | 0.00 | 0.01 | 0.00 | 72 | 1008.9 |
| 20260905071641 | 71 | 356 | 2.0 | 5.0 | 0.00 | 0.01 | 0.00 | 72 | 1008.8 |
| 20260905071421 | 72 | 356 | 1.0 | 4.0 | 0.00 | 0.01 | 0.00 | 72 | 1008.9 |
| 20260905071119 | 72 | 356 | 2.0 | 4.0 | 0.00 | 0.01 | 0.00 | 72 | 1008.8 |
| 20260905070920 | 72 | 1 | 2.0 | 5.0 | 0.00 | 0.01 | 0.00 | 72 | 1008.9 |
| 20260905070617 | 72 | 1 | 1.0 | 6.0 | 0.00 | 0.01 | 0.00 | 72 | 1008.8 |
| 20260905070425 | 71 | 1 | 2.0 | 6.0 | 0.00 | 0.01 | 0.00 | 72 | 1008.8 |
| 20260905070123 | 71 | 4 | 2.0 | 6.0 | 0.00 | 0.01 | 0.00 | 72 | 1008.8 |
| 20260905065923 | 71 | 4 | 3.0 | 6.0 | 0.00 | 0.01 | 0.00 | 72 | 1008.8 |
| 20260905065621 | 71 | 8 | 2.0 | 5.0 | 0.00 | 0.01 | 0.00 | 73 | 1008.8 |
| 20260905065422 | 72 | 8 | 2.0 | 5.0 | 0.00 | 0.01 | 0.00 | 73 | 1008.9 |
| 20260905065128 | 72 | 356 | 1.0 | 5.0 | 0.00 | 0.01 | 0.00 | 73 | 1008.8 |
| 20260905064907 | 72 | 356 | 1.0 | 5.0 | 0.00 | 0.01 | 0.00 | 73 | 1008.9 |
| 20260905064405 | 72 | 2 | 2.0 | 8.0 | 0.00 | 0.01 | 0.00 | 73 | 1008.8 |
| 20260905064125 | 72 | 11 | 2.0 | 8.0 | 0.00 | 0.01 | 0.00 | 73 | 1008.9 |
| 20260905063930 | 72 | 356 | 2.0 | 8.0 | 0.00 | 0.01 | 0.00 | 73 | 1008.9 |
| 20260905063604 | 72 | 9 | 2.0 | 5.0 | 0.00 | 0.01 | 0.00 | 74 | 1008.9 |
| 20260905063435 | 71 | 360 | 2.0 | 4.0 | 0.00 | 0.01 | 0.00 | 75 | 1008.9 |
| 20260905063107 | 71 | 2 | 1.0 | 4.0 | 0.00 | 0.01 | 0.00 | 75 | 1009.0 |
| 20260905062912 | 71 | 2 | 3.0 | 4.0 | 0.00 | 0.01 | 0.00 | 75 | 1009.0 |
| 20260905062606 | 71 | 356 | 0.0 | 2.0 | 0.00 | 0.01 | 0.00 | 76 | 1009.0 |
| 20260905062419 | 71 | 356 | 0.0 | 2.0 | 0.00 | 0.01 | 0.00 | 76 | 1009.1 |
| 20260905062134 | 71 | 356 | 0.0 | 1.0 | 0.00 | 0.01 | 0.00 | 76 | 1009.1 |
| 20260905061918 | 71 | 356 | 0.0 | 1.0 | 0.00 | 0.01 | 0.00 | 76 | 1009.1 |
| 20260905061618 | 71 | 356 | 0.0 | 0.0 | 0.00 | 0.01 | 0.00 | 77 | 1009.1 |
| 20260905061423 | 71 | 356 | 0.0 | 0.0 | 0.00 | 0.01 | 0.00 | 78 | 1009.1 |
| 20260905061118 | 71 | 356 | 0.0 | 0.0 | 0.00 | 0.01 | 0.00 | 77 | 1009.1 |
| 20260905060923 | 71 | 356 | 0.0 | 0.0 | 0.00 | 0.01 | 0.00 | 77 | 1009.2 |
| 20260905060616 | 71 | 356 | 0.0 | 0.0 | 0.00 | 0.01 | 0.00 | 78 | 1009.1 |
| 20260905060427 | 71 | 356 | 0.0 | 0.0 | 0.00 | 0.01 | 0.00 | 77 | 1009.2 |
| 20260905060122 | 72 | 356 | 0.0 | 0.0 | 0.00 | 0.01 | 0.00 | 77 | 1009.2 |
| 20260905055906 | 72 | 356 | 0.0 | 0.0 | 0.00 | 0.01 | 0.00 | 76 | 1009.2 |
| 20260905055620 | 72 | 356 | 0.0 | 1.0 | 0.00 | 0.01 | 0.00 | 76 | 1009.1 |
| 20260905055405 | 72 | 356 | 0.0 | 1.0 | 0.00 | 0.01 | 0.00 | 76 | 1009.2 |
| 20260905055127 | 72 | 356 | 0.0 | 1.0 | 0.00 | 0.01 | 0.00 | 75 | 1009.2 |
| 20260905054932 | 72 | 356 | 0.0 | 1.0 | 0.00 | 0.01 | 0.00 | 75 | 1009.2 |
| 20260905054605 | 72 | 356 | 0.0 | 1.0 | 0.00 | 0.01 | 0.00 | 76 | 1009.2 |
| 20260905054410 | 72 | 356 | 0.0 | 2.0 | 0.00 | 0.01 | 0.00 | 76 | 1009.2 |
| 20260905054104 | 72 | 356 | 0.0 | 2.0 | 0.00 | 0.01 | 0.00 | 77 | 1009.3 |
| 20260905053915 | 72 | 356 | 0.0 | 3.0 | 0.00 | 0.01 | 0.00 | 77 | 1009.3 |
| 20260905053610 | 72 | 356 | 0.0 | 3.0 | 0.00 | 0.01 | 0.00 | 77 | 1009.3 |
| 20260905053414 | 72 | 356 | 1.0 | 3.0 | 0.00 | 0.01 | 0.00 | 76 | 1009.4 |
| 20260905053108 | 72 | 356 | 1.0 | 2.0 | 0.00 | 0.01 | 0.00 | 77 | 1009.4 |
| 20260905052912 | 72 | 356 | 0.0 | 1.0 | 0.00 | 0.01 | 0.00 | 78 | 1009.4 |
| 20260905052607 | 72 | 356 | 0.0 | 4.0 | 0.00 | 0.01 | 0.00 | 77 | 1009.4 |
| 20260905052417 | 72 | 356 | 0.0 | 4.0 | 0.00 | 0.01 | 0.00 | 77 | 1009.5 |
| 20260905052112 | 72 | 356 | 0.0 | 4.0 | 0.00 | 0.01 | 0.00 | 76 | 1009.6 |
| 20260905051937 | 72 | 356 | 1.0 | 4.0 | 0.00 | 0.01 | 0.00 | 76 | 1009.6 |
| 20260905051616 | 72 | 356 | 1.0 | 2.0 | 0.00 | 0.01 | 0.00 | 77 | 1009.7 |
| 20260905051421 | 72 | 356 | 1.0 | 2.0 | 0.00 | 0.01 | 0.00 | 77 | 1009.6 |
| 20260905051143 | 72 | 356 | 1.0 | 2.0 | 0.00 | 0.01 | 0.00 | 78 | 1009.6 |
| 20260905050925 | 72 | 356 | 0.0 | 2.0 | 0.00 | 0.01 | 0.00 | 79 | 1009.6 |
| 20260905050619 | 72 | 356 | 0.0 | 2.0 | 0.00 | 0.01 | 0.00 | 80 | 1009.6 |
| 20260905050404 | 72 | 356 | 0.0 | 2.0 | 0.00 | 0.01 | 0.00 | 80 | 1009.6 |
| 20260905050146 | 72 | 356 | 0.0 | 1.0 | 0.00 | 0.01 | 0.00 | 80 | 1009.7 |
| 20260905045910 | 72 | 356 | 0.0 | 1.0 | 0.00 | 0.01 | 0.00 | 80 | 1009.7 |
| 20260905045622 | 72 | 356 | 0.0 | 1.0 | 0.00 | 0.01 | 0.00 | 80 | 1009.7 |
| 20260905045406 | 72 | 356 | 0.0 | 2.0 | 0.00 | 0.01 | 0.00 | 80 | 1009.7 |
| 20260905045121 | 72 | 356 | 0.0 | 2.0 | 0.00 | 0.01 | 0.00 | 80 | 1009.7 |
| 20260905044906 | 72 | 356 | 0.0 | 2.0 | 0.00 | 0.01 | 0.00 | 80 | 1009.7 |
| 20260905044608 | 72 | 356 | 1.0 | 2.0 | 0.00 | 0.01 | 0.00 | 80 | 1009.8 |
| 20260905044411 | 72 | 356 | 1.0 | 2.0 | 0.00 | 0.01 | 0.00 | 80 | 1009.8 |
| 20260905044126 | 72 | 356 | 0.0 | 2.0 | 0.00 | 0.01 | 0.00 | 80 | 1009.8 |
| 20260905043906 | 72 | 356 | 0.0 | 1.0 | 0.00 | 0.01 | 0.00 | 80 | 1009.8 |
| 20260905043610 | 72 | 356 | 0.0 | 1.0 | 0.00 | 0.01 | 0.00 | 80 | 1009.8 |
| 20260905043408 | 72 | 356 | 0.0 | 2.0 | 0.00 | 0.01 | 0.00 | 80 | 1009.8 |
| 20260905043107 | 72 | 356 | 1.0 | 2.0 | 0.00 | 0.01 | 0.00 | 80 | 1009.9 |
| 20260905042907 | 72 | 356 | 0.0 | 3.0 | 0.00 | 0.01 | 0.00 | 80 | 1009.9 |
| 20260905042606 | 72 | 356 | 1.0 | 3.0 | 0.00 | 0.01 | 0.00 | 80 | 1009.8 |
| 20260905042434 | 72 | 356 | 1.0 | 3.0 | 0.00 | 0.01 | 0.00 | 81 | 1009.8 |
| 20260905042111 | 72 | 356 | 2.0 | 3.0 | 0.00 | 0.01 | 0.00 | 80 | 1009.8 |
| 20260905041911 | 72 | 356 | 1.0 | 2.0 | 0.00 | 0.01 | 0.00 | 79 | 1009.9 |
| 20260905041616 | 72 | 356 | 0.0 | 2.0 | 0.00 | 0.01 | 0.00 | 79 | 1009.9 |
| 20260905041416 | 73 | 356 | 1.0 | 2.0 | 0.00 | 0.01 | 0.00 | 79 | 1009.9 |
| 20260905041113 | 73 | 356 | 0.0 | 1.0 | 0.00 | 0.01 | 0.00 | 79 | 1009.9 |
| 20260905040913 | 73 | 356 | 0.0 | 1.0 | 0.00 | 0.01 | 0.00 | 79 | 1010.0 |
| 20260905040617 | 73 | 356 | 0.0 | 1.0 | 0.00 | 0.01 | 0.00 | 79 | 1010.0 |
| 20260905040439 | 73 | 356 | 0.0 | 1.0 | 0.00 | 0.01 | 0.00 | 78 | 1010.0 |
| 20260905040116 | 73 | 356 | 0.0 | 1.0 | 0.00 | 0.01 | 0.00 | 78 | 1009.9 |
| 20260905035917 | 73 | 356 | 0.0 | 1.0 | 0.00 | 0.01 | 0.00 | 78 | 1010.0 |
| 20260905035642 | 73 | 356 | 0.0 | 2.0 | 0.00 | 0.01 | 0.00 | 78 | 1010.0 |
| 20260905035422 | 73 | 356 | 0.0 | 2.0 | 0.00 | 0.01 | 0.00 | 77 | 1010.0 |
| 20260905035120 | 73 | 356 | 0.0 | 2.0 | 0.00 | 0.01 | 0.00 | 77 | 1010.0 |
| 20260905034928 | 73 | 356 | 1.0 | 2.0 | 0.00 | 0.01 | 0.01 | 77 | 1010.0 |
| 20260905034626 | 74 | 356 | 1.0 | 3.0 | 0.00 | 0.01 | 0.01 | 76 | 1009.9 |
| 20260905034405 | 74 | 356 | 1.0 | 3.0 | 0.00 | 0.01 | 0.01 | 76 | 1009.9 |
| 20260905034129 | 74 | 356 | 1.0 | 3.0 | 0.00 | 0.01 | 0.01 | 76 | 1010.0 |
| 20260905033929 | 73 | 356 | 1.0 | 3.0 | 0.00 | 0.01 | 0.01 | 76 | 1010.0 |
| 20260905033628 | 73 | 356 | 1.0 | 3.0 | 0.00 | 0.01 | 0.01 | 76 | 1009.9 |
| 20260905033407 | 73 | 356 | 1.0 | 3.0 | 0.00 | 0.01 | 0.01 | 76 | 1010.0 |
| 20260905033106 | 73 | 356 | 2.0 | 4.0 | 0.00 | 0.01 | 0.01 | 76 | 1009.9 |
| 20260905032913 | 73 | 356 | 2.0 | 4.0 | 0.00 | 0.01 | 0.01 | 76 | 1009.9 |
| 20260905032632 | 74 | 356 | 2.0 | 4.0 | 0.00 | 0.01 | 0.01 | 76 | 1009.9 |
| 20260905032411 | 74 | 356 | 2.0 | 4.0 | 0.00 | 0.01 | 0.01 | 76 | 1009.8 |
| 20260905032118 | 74 | 351 | 1.0 | 3.0 | 0.00 | 0.01 | 0.01 | 75 | 1009.8 |
| 20260905031917 | 74 | 351 | 1.0 | 3.0 | 0.00 | 0.01 | 0.01 | 76 | 1009.8 |
| 20260905031614 | 74 | 351 | 2.0 | 3.0 | 0.00 | 0.01 | 0.01 | 77 | 1009.8 |
| 20260905031442 | 74 | 351 | 1.0 | 3.0 | 0.00 | 0.01 | 0.01 | 77 | 1009.8 |
| 20260905031119 | 73 | 351 | 2.0 | 6.0 | 0.00 | 0.01 | 0.01 | 76 | 1009.8 |
| 20260905030920 | 74 | 351 | 0.0 | 6.0 | 0.00 | 0.01 | 0.01 | 76 | 1009.8 |
| 20260905030618 | 74 | 346 | 1.0 | 6.0 | 0.00 | 0.01 | 0.01 | 75 | 1009.8 |
| 20260905030419 | 74 | 346 | 2.0 | 6.0 | 0.00 | 0.01 | 0.01 | 75 | 1009.8 |
| 20260905030123 | 74 | 356 | 2.0 | 5.0 | 0.00 | 0.01 | 0.01 | 75 | 1009.7 |
| 20260905025924 | 74 | 8 | 2.0 | 4.0 | 0.00 | 0.01 | 0.01 | 75 | 1009.8 |
| 20260905025623 | 74 | 8 | 2.0 | 4.0 | 0.00 | 0.01 | 0.01 | 76 | 1009.8 |
| 20260905025404 | 73 | 8 | 1.0 | 6.0 | 0.00 | 0.01 | 0.01 | 76 | 1009.8 |
| 20260905025149 | 73 | 10 | 1.0 | 6.0 | 0.00 | 0.01 | 0.01 | 76 | 1009.8 |
| 20260905024909 | 73 | 10 | 1.0 | 6.0 | 0.00 | 0.01 | 0.01 | 76 | 1009.8 |
| 20260905024629 | 73 | 26 | 1.0 | 5.0 | 0.00 | 0.01 | 0.01 | 76 | 1009.8 |
| 20260905024408 | 74 | 27 | 1.0 | 5.0 | 0.00 | 0.01 | 0.01 | 76 | 1009.9 |
| 20260905024114 | 74 | 27 | 1.0 | 5.0 | 0.00 | 0.01 | 0.01 | 76 | 1009.8 |
| 20260905023914 | 73 | 10 | 2.0 | 5.0 | 0.00 | 0.01 | 0.01 | 76 | 1009.8 |
| 20260905023628 | 73 | 14 | 2.0 | 5.0 | 0.00 | 0.01 | 0.01 | 77 | 1009.8 |
| 20260905023439 | 73 | 25 | 1.0 | 5.0 | 0.00 | 0.01 | 0.01 | 78 | 1009.8 |
| 20260905023133 | 73 | 29 | 1.0 | 5.0 | 0.00 | 0.01 | 0.01 | 78 | 1009.8 |
| 20260905022923 | 72 | 271 | 0.0 | 4.0 | 0.00 | 0.01 | 0.01 | 78 | 1009.8 |
| 20260905022638 | 72 | 271 | 0.0 | 4.0 | 0.00 | 0.01 | 0.01 | 79 | 1009.9 |
| 20260905022422 | 72 | 270 | 1.0 | 4.0 | 0.00 | 0.01 | 0.01 | 79 | 1010.0 |
| 20260905022117 | 72 | 289 | 0.0 | 4.0 | 0.00 | 0.01 | 0.01 | 81 | 1009.9 |
| 20260905021928 | 72 | 289 | 0.0 | 4.0 | 0.00 | 0.01 | 0.01 | 82 | 1009.9 |
| 20260905021643 | 72 | 289 | 1.0 | 4.0 | 0.00 | 0.01 | 0.01 | 83 | 1009.9 |
| 20260905021407 | 72 | 289 | 0.0 | 1.0 | 0.00 | 0.01 | 0.01 | 84 | 1009.9 |
| 20260905021127 | 72 | 289 | 0.0 | 2.0 | 0.00 | 0.01 | 0.01 | 84 | 1009.9 |
| 20260905020912 | 72 | 289 | 0.0 | 2.0 | 0.00 | 0.01 | 0.01 | 84 | 1009.8 |
| 20260905020607 | 72 | 289 | 0.0 | 2.0 | 0.00 | 0.01 | 0.01 | 84 | 1009.8 |
| 20260905020411 | 72 | 289 | 0.0 | 2.0 | 0.00 | 0.01 | 0.01 | 84 | 1009.8 |
| 20260905020106 | 72 | 289 | 0.0 | 2.0 | 0.00 | 0.01 | 0.01 | 85 | 1009.9 |
| 20260905015911 | 71 | 289 | 0.0 | 2.0 | 0.00 | 0.01 | 0.01 | 84 | 1009.9 |
| 20260905015611 | 71 | 289 | 1.0 | 2.0 | 0.00 | 0.01 | 0.01 | 84 | 1010.0 |
| 20260905015415 | 71 | 289 | 1.0 | 2.0 | 0.00 | 0.01 | 0.01 | 85 | 1010.0 |
| 20260905015109 | 71 | 289 | 1.0 | 2.0 | 0.00 | 0.01 | 0.01 | 85 | 1010.0 |
| 20260905014942 | 71 | 289 | 0.0 | 1.0 | 0.00 | 0.01 | 0.01 | 85 | 1010.1 |
| 20260905014615 | 71 | 289 | 0.0 | 1.0 | 0.00 | 0.01 | 0.01 | 85 | 1010.1 |
| 20260905014420 | 71 | 289 | 0.0 | 2.0 | 0.00 | 0.01 | 0.01 | 85 | 1010.1 |
| 20260905014136 | 71 | 289 | 0.0 | 2.0 | 0.00 | 0.01 | 0.01 | 86 | 1010.1 |
| 20260905013921 | 71 | 289 | 1.0 | 2.0 | 0.00 | 0.01 | 0.01 | 86 | 1010.0 |
| 20260905013619 | 71 | 289 | 0.0 | 2.0 | 0.00 | 0.01 | 0.01 | 86 | 1010.1 |
| 20260905013404 | 71 | 289 | 0.0 | 2.0 | 0.00 | 0.01 | 0.01 | 85 | 1010.0 |
| 20260905013118 | 71 | 289 | 1.0 | 2.0 | 0.00 | 0.01 | 0.01 | 85 | 1010.0 |
| 20260905012903 | 71 | 289 | 0.0 | 2.0 | 0.00 | 0.01 | 0.01 | 85 | 1010.0 |
| 20260905012624 | 71 | 289 | 0.0 | 2.0 | 0.00 | 0.01 | 0.01 | 85 | 1010.0 |
| 20260905012410 | 71 | 289 | 1.0 | 3.0 | 0.00 | 0.01 | 0.01 | 85 | 1010.1 |
| 20260905012121 | 71 | 289 | 1.0 | 3.0 | 0.00 | 0.01 | 0.01 | 86 | 1010.0 |
| 20260905011906 | 71 | 289 | 1.0 | 3.0 | 0.00 | 0.01 | 0.01 | 86 | 1010.0 |
| 20260905011627 | 71 | 283 | 0.0 | 1.0 | 0.00 | 0.01 | 0.01 | 86 | 1010.0 |
| 20260905011405 | 71 | 283 | 0.0 | 1.0 | 0.00 | 0.01 | 0.01 | 86 | 1009.9 |
| 20260905011125 | 71 | 283 | 0.0 | 2.0 | 0.00 | 0.01 | 0.01 | 85 | 1009.9 |
| 20260905010905 | 71 | 283 | 0.0 | 2.0 | 0.00 | 0.01 | 0.01 | 86 | 1009.9 |
| 20260905010603 | 71 | 283 | 0.0 | 2.0 | 0.00 | 0.01 | 0.01 | 85 | 1009.9 |
| 20260905010410 | 71 | 283 | 1.0 | 2.0 | 0.00 | 0.01 | 0.01 | 85 | 1009.9 |
| 20260905010109 | 72 | 283 | 0.0 | 1.0 | 0.00 | 0.01 | 0.01 | 85 | 1009.8 |
| 20260905005909 | 72 | 283 | 1.0 | 2.0 | 0.00 | 0.01 | 0.01 | 85 | 1009.9 |
| 20260905005605 | 72 | 283 | 1.0 | 2.0 | 0.00 | 0.01 | 0.01 | 85 | 1010.0 |
| 20260905005406 | 72 | 283 | 1.0 | 2.0 | 0.00 | 0.01 | 0.01 | 84 | 1010.0 |
| 20260905005104 | 72 | 283 | 1.0 | 2.0 | 0.00 | 0.01 | 0.01 | 84 | 1010.0 |
| 20260905004911 | 72 | 283 | 0.0 | 1.0 | 0.00 | 0.01 | 0.01 | 84 | 1010.0 |
| 20260905004609 | 73 | 283 | 0.0 | 1.0 | 0.00 | 0.01 | 0.01 | 83 | 1010.1 |
| 20260905004409 | 73 | 283 | 0.0 | 1.0 | 0.00 | 0.01 | 0.01 | 83 | 1010.0 |
| 20260905004107 | 73 | 283 | 0.0 | 1.0 | 0.00 | 0.01 | 0.01 | 82 | 1009.9 |
| 20260905003915 | 73 | 283 | 0.0 | 1.0 | 0.00 | 0.01 | 0.01 | 82 | 1009.9 |
| 20260905003610 | 73 | 283 | 0.0 | 1.0 | 0.00 | 0.01 | 0.01 | 82 | 1009.9 |
| 20260905003411 | 73 | 283 | 0.0 | 1.0 | 0.00 | 0.01 | 0.01 | 81 | 1009.9 |
| 20260905003110 | 74 | 283 | 0.0 | 1.0 | 0.00 | 0.01 | 0.01 | 81 | 1009.8 |
| 20260905002911 | 74 | 283 | 0.0 | 1.0 | 0.00 | 0.01 | 0.01 | 80 | 1009.8 |
| 20260905002609 | 74 | 283 | 0.0 | 2.0 | 0.00 | 0.01 | 0.01 | 80 | 1009.8 |
| 20260905002416 | 74 | 283 | 0.0 | 2.0 | 0.00 | 0.01 | 0.01 | 79 | 1009.8 |
| 20260905002115 | 74 | 283 | 0.0 | 2.0 | 0.00 | 0.01 | 0.01 | 79 | 1009.7 |
| 20260905001914 | 74 | 283 | 1.0 | 2.0 | 0.00 | 0.01 | 0.01 | 79 | 1009.7 |
| 20260905001613 | 75 | 283 | 0.0 | 1.0 | 0.00 | 0.01 | 0.01 | 79 | 1009.7 |
| 20260905001420 | 75 | 283 | 0.0 | 1.0 | 0.00 | 0.01 | 0.01 | 78 | 1009.7 |
| 20260905001119 | 75 | 283 | 0.0 | 1.0 | 0.00 | 0.01 | 0.01 | 78 | 1009.6 |
| 20260905000903 | 75 | 283 | 0.0 | 1.0 | 0.00 | 0.01 | 0.01 | 78 | 1009.7 |
| 20260905000618 | 75 | 283 | 0.0 | 1.0 | 0.00 | 0.01 | 0.01 | 78 | 1009.6 |
| 20260905000419 | 76 | 283 | 0.0 | 1.0 | 0.00 | 0.01 | 0.01 | 78 | 1009.6 |
| 20260905000123 | 76 | 283 | 0.0 | 1.0 | 0.00 | 0.01 | 0.01 | 77 | 1009.6 |
| 20260904235924 | 76 | 283 | 0.0 | 1.0 | 0.00 | 0.01 | 0.01 | 76 | 1009.6 |
| 20260904235622 | 76 | 283 | 0.0 | 1.0 | 0.00 | 0.01 | 0.01 | 76 | 1009.5 |
| 20260904235407 | 76 | 283 | 0.0 | 1.0 | 0.00 | 0.01 | 0.01 | 77 | 1009.5 |
| 20260904235121 | 76 | 283 | 0.0 | 1.0 | 0.00 | 0.01 | 0.01 | 77 | 1009.5 |
| 20260904234929 | 76 | 283 | 0.0 | 1.0 | 0.00 | 0.01 | 0.01 | 77 | 1009.5 |
| 20260904234628 | 76 | 283 | 0.0 | 1.0 | 0.00 | 0.01 | 0.01 | 76 | 1009.5 |
| 20260904234407 | 76 | 283 | 0.0 | 1.0 | 0.00 | 0.01 | 0.01 | 76 | 1009.5 |
| 20260904234105 | 77 | 283 | 0.0 | 1.0 | 0.00 | 0.01 | 0.01 | 76 | 1009.4 |
| 20260904233912 | 77 | 283 | 0.0 | 1.0 | 0.00 | 0.01 | 0.01 | 75 | 1009.4 |
| 20260904233610 | 77 | 283 | 0.0 | 1.0 | 0.00 | 0.01 | 0.01 | 75 | 1009.4 |
| 20260904233411 | 77 | 283 | 0.0 | 1.0 | 0.00 | 0.01 | 0.01 | 74 | 1009.5 |
| 20260904233109 | 77 | 283 | 0.0 | 1.0 | 0.00 | 0.01 | 0.01 | 73 | 1009.5 |
| 20260904232909 | 78 | 283 | 0.0 | 1.0 | 0.00 | 0.01 | 0.01 | 73 | 1009.4 |
| 20260904232635 | 78 | 283 | 0.0 | 1.0 | 0.00 | 0.01 | 0.01 | 72 | 1009.4 |
| 20260904232415 | 78 | 283 | 0.0 | 1.0 | 0.00 | 0.01 | 0.01 | 71 | 1009.4 |
| 20260904232113 | 79 | 283 | 0.0 | 2.0 | 0.00 | 0.01 | 0.01 | 71 | 1009.4 |
| 20260904231919 | 79 | 283 | 0.0 | 2.0 | 0.00 | 0.01 | 0.01 | 71 | 1009.4 |
| 20260904231618 | 79 | 283 | 0.0 | 2.0 | 0.00 | 0.01 | 0.01 | 70 | 1009.4 |
| 20260904231419 | 79 | 283 | 0.0 | 2.0 | 0.00 | 0.01 | 0.01 | 70 | 1009.4 |
| 20260904231117 | 80 | 283 | 0.0 | 2.0 | 0.00 | 0.01 | 0.01 | 70 | 1009.4 |
| 20260904230925 | 80 | 283 | 0.0 | 2.0 | 0.00 | 0.01 | 0.01 | 70 | 1009.4 |
| 20260904230623 | 80 | 283 | 0.0 | 2.0 | 0.00 | 0.01 | 0.01 | 69 | 1009.4 |
| 20260904230444 | 80 | 283 | 0.0 | 2.0 | 0.00 | 0.01 | 0.01 | 69 | 1009.3 |
| 20260904230120 | 81 | 283 | 1.0 | 2.0 | 0.00 | 0.01 | 0.01 | 66 | 1009.4 |
| 20260904225927 | 81 | 284 | 0.0 | 2.0 | 0.00 | 0.01 | 0.01 | 65 | 1009.4 |
| 20260904225607 | 81 | 284 | 0.0 | 2.0 | 0.00 | 0.01 | 0.01 | 64 | 1009.3 |
| 20260904225428 | 81 | 284 | 0.0 | 2.0 | 0.00 | 0.01 | 0.01 | 64 | 1009.4 |
| 20260904225105 | 81 | 284 | 0.0 | 1.0 | 0.00 | 0.01 | 0.01 | 64 | 1009.4 |
| 20260904224906 | 81 | 284 | 0.0 | 2.0 | 0.00 | 0.01 | 0.01 | 63 | 1009.4 |
| 20260904224610 | 82 | 284 | 0.0 | 2.0 | 0.00 | 0.01 | 0.01 | 63 | 1009.4 |
| 20260904224410 | 82 | 284 | 0.0 | 2.0 | 0.00 | 0.01 | 0.01 | 63 | 1009.5 |
| 20260904224109 | 82 | 284 | 0.0 | 3.0 | 0.00 | 0.01 | 0.01 | 62 | 1009.5 |
| 20260904223910 | 82 | 284 | 0.0 | 3.0 | 0.00 | 0.01 | 0.01 | 62 | 1009.5 |
| 20260904223608 | 82 | 284 | 1.0 | 3.0 | 0.00 | 0.01 | 0.01 | 62 | 1009.5 |
| 20260904223415 | 82 | 5 | 1.0 | 3.0 | 0.00 | 0.01 | 0.01 | 61 | 1009.5 |
| 20260904223114 | 82 | 5 | 1.0 | 3.0 | 0.00 | 0.01 | 0.01 | 61 | 1009.5 |
| 20260904222935 | 82 | 5 | 1.0 | 3.0 | 0.00 | 0.01 | 0.01 | 61 | 1009.5 |
| 20260904222618 | 82 | 4 | 1.0 | 3.0 | 0.00 | 0.01 | 0.01 | 61 | 1009.5 |
| 20260904222419 | 82 | 5 | 1.0 | 5.0 | 0.00 | 0.01 | 0.01 | 60 | 1009.5 |
| 20260904222118 | 83 | 5 | 1.0 | 5.0 | 0.00 | 0.01 | 0.01 | 60 | 1009.6 |
| 20260904221945 | 83 | 6 | 1.0 | 5.0 | 0.00 | 0.01 | 0.01 | 60 | 1009.6 |
| 20260904221622 | 83 | 19 | 1.0 | 5.0 | 0.00 | 0.01 | 0.01 | 61 | 1009.6 |
| 20260904221423 | 83 | 19 | 2.0 | 5.0 | 0.00 | 0.01 | 0.01 | 60 | 1009.6 |
| 20260904221122 | 83 | 6 | 1.0 | 5.0 | 0.00 | 0.01 | 0.01 | 60 | 1009.6 |
| 20260904220929 | 83 | 38 | 1.0 | 5.0 | 0.00 | 0.01 | 0.01 | 59 | 1009.6 |
| 20260904220626 | 83 | 2 | 1.0 | 5.0 | 0.00 | 0.01 | 0.01 | 59 | 1009.7 |
| 20260904220428 | 83 | 302 | 1.0 | 8.0 | 0.00 | 0.01 | 0.01 | 60 | 1009.5 |
| 20260904220134 | 83 | 351 | 1.0 | 8.0 | 0.00 | 0.01 | 0.01 | 60 | 1009.4 |
| 20260904215912 | 83 | 346 | 2.0 | 8.0 | 0.00 | 0.01 | 0.01 | 59 | 1009.4 |
| 20260904215610 | 83 | 16 | 2.0 | 6.0 | 0.00 | 0.01 | 0.01 | 60 | 1009.4 |
| 20260904215411 | 83 | 356 | 4.0 | 6.0 | 0.00 | 0.01 | 0.01 | 59 | 1009.4 |
| 20260904215109 | 83 | 2 | 3.0 | 6.0 | 0.00 | 0.01 | 0.01 | 58 | 1009.4 |
| 20260904214918 | 84 | 356 | 4.0 | 6.0 | 0.00 | 0.01 | 0.01 | 58 | 1009.3 |
| 20260904214614 | 84 | 1 | 1.0 | 6.0 | 0.00 | 0.01 | 0.01 | 59 | 1009.4 |
| 20260904214416 | 84 | 4 | 2.0 | 10.0 | 0.00 | 0.01 | 0.01 | 58 | 1009.4 |
| 20260904214114 | 84 | 8 | 2.0 | 10.0 | 0.00 | 0.01 | 0.01 | 59 | 1009.5 |
| 20260904213915 | 84 | 12 | 3.0 | 10.0 | 0.00 | 0.01 | 0.01 | 60 | 1009.4 |
| 20260904213620 | 84 | 10 | 3.0 | 10.0 | 0.00 | 0.01 | 0.01 | 58 | 1009.2 |
| 20260904213439 | 85 | 7 | 2.0 | 8.0 | 0.00 | 0.01 | 0.01 | 58 | 1009.2 |
| 20260904213116 | 85 | 356 | 1.0 | 6.0 | 0.00 | 0.01 | 0.01 | 57 | 1009.2 |
| 20260904212917 | 85 | 351 | 1.0 | 6.0 | 0.00 | 0.01 | 0.01 | 59 | 1009.2 |
| 20260904212638 | 85 | 360 | 3.0 | 9.0 | 0.00 | 0.01 | 0.01 | 59 | 1009.1 |
| 20260904212422 | 84 | 5 | 2.0 | 9.0 | 0.00 | 0.01 | 0.01 | 58 | 1009.1 |
| 20260904212117 | 84 | 22 | 1.0 | 9.0 | 0.00 | 0.01 | 0.01 | 58 | 1009.1 |
| 20260904211928 | 84 | 23 | 4.0 | 11.0 | 0.00 | 0.01 | 0.01 | 58 | 1009.0 |
| 20260904211606 | 85 | 346 | 2.0 | 11.0 | 0.00 | 0.01 | 0.01 | 59 | 1009.1 |
| 20260904211407 | 85 | 2 | 3.0 | 11.0 | 0.00 | 0.01 | 0.01 | 59 | 1009.2 |
| 20260904211105 | 85 | 4 | 6.0 | 11.0 | 0.00 | 0.01 | 0.01 | 58 | 1009.2 |
| 20260904210906 | 86 | 8 | 4.0 | 9.0 | 0.00 | 0.01 | 0.01 | 58 | 1009.1 |
| 20260904210626 | 85 | 305 | 2.0 | 10.0 | 0.00 | 0.01 | 0.01 | 58 | 1009.2 |
| 20260904210410 | 85 | 2 | 3.0 | 10.0 | 0.00 | 0.01 | 0.01 | 57 | 1009.1 |
| 20260904210125 | 85 | 346 | 2.0 | 10.0 | 0.00 | 0.01 | 0.01 | 58 | 1009.1 |
| 20260904205935 | 85 | 341 | 4.0 | 10.0 | 0.00 | 0.01 | 0.01 | 56 | 1009.2 |
| 20260904205609 | 86 | 356 | 5.0 | 8.0 | 0.00 | 0.01 | 0.01 | 56 | 1009.2 |
| 20260904205414 | 86 | 15 | 4.0 | 9.0 | 0.00 | 0.01 | 0.01 | 55 | 1009.3 |
| 20260904205107 | 86 | 11 | 1.0 | 10.0 | 0.00 | 0.01 | 0.01 | 56 | 1009.3 |
| 20260904204919 | 86 | 21 | 2.0 | 10.0 | 0.00 | 0.01 | 0.01 | 57 | 1009.3 |
| 20260904204613 | 86 | 346 | 4.0 | 13.0 | 0.00 | 0.01 | 0.01 | 56 | 1009.4 |
| 20260904204418 | 86 | 302 | 1.0 | 13.0 | 0.00 | 0.01 | 0.01 | 57 | 1009.4 |
| 20260904204112 | 85 | 13 | 2.0 | 13.0 | 0.00 | 0.01 | 0.01 | 58 | 1009.5 |
| 20260904203917 | 86 | 15 | 5.0 | 13.0 | 0.00 | 0.01 | 0.01 | 58 | 1009.5 |
| 20260904203611 | 86 | 31 | 2.0 | 12.0 | 0.00 | 0.01 | 0.01 | 56 | 1009.5 |
| 20260904203423 | 86 | 10 | 4.0 | 12.0 | 0.00 | 0.01 | 0.01 | 55 | 1009.6 |
| 20260904203117 | 86 | 356 | 4.0 | 12.0 | 0.00 | 0.01 | 0.01 | 55 | 1009.6 |
| 20260904202942 | 87 | 19 | 4.0 | 12.0 | 0.00 | 0.01 | 0.01 | 57 | 1009.6 |
| 20260904202620 | 87 | 2 | 6.0 | 11.0 | 0.00 | 0.01 | 0.01 | 54 | 1009.6 |
| 20260904202404 | 88 | 29 | 2.0 | 9.0 | 0.00 | 0.01 | 0.01 | 56 | 1009.6 |
| 20260904202117 | 87 | 50 | 1.0 | 9.0 | 0.00 | 0.01 | 0.01 | 57 | 1009.6 |
| 20260904201922 | 87 | 54 | 3.0 | 9.0 | 0.00 | 0.01 | 0.01 | 56 | 1009.6 |
| 20260904201622 | 87 | 324 | 0.0 | 6.0 | 0.00 | 0.01 | 0.01 | 57 | 1009.7 |
| 20260904201427 | 87 | 324 | 1.0 | 6.0 | 0.00 | 0.01 | 0.01 | 57 | 1009.7 |
| 20260904201122 | 87 | 3 | 3.0 | 6.0 | 0.00 | 0.01 | 0.01 | 56 | 1009.7 |
| 20260904200928 | 87 | 351 | 1.0 | 8.0 | 0.00 | 0.01 | 0.01 | 57 | 1009.7 |
| 20260904200627 | 87 | 346 | 2.0 | 8.0 | 0.00 | 0.01 | 0.01 | 57 | 1009.7 |
| 20260904200412 | 87 | 337 | 3.0 | 9.0 | 0.00 | 0.01 | 0.01 | 57 | 1009.7 |
| 20260904200106 | 87 | 328 | 1.0 | 9.0 | 0.00 | 0.01 | 0.01 | 57 | 1009.6 |
| 20260904195911 | 87 | 351 | 2.0 | 9.0 | 0.00 | 0.01 | 0.01 | 55 | 1009.6 |
| 20260904195627 | 87 | 13 | 2.0 | 6.0 | 0.00 | 0.01 | 0.01 | 55 | 1009.7 |
| 20260904195417 | 88 | 29 | 2.0 | 6.0 | 0.00 | 0.01 | 0.01 | 56 | 1009.7 |
| 20260904195111 | 87 | 346 | 1.0 | 5.0 | 0.00 | 0.01 | 0.01 | 56 | 1009.7 |
| 20260904194944 | 87 | 356 | 2.0 | 5.0 | 0.00 | 0.01 | 0.01 | 57 | 1009.7 |
| 20260904194617 | 86 | 4 | 2.0 | 5.0 | 0.00 | 0.01 | 0.01 | 57 | 1009.7 |
| 20260904194422 | 86 | 4 | 2.0 | 9.0 | 0.00 | 0.01 | 0.01 | 57 | 1009.8 |
| 20260904194116 | 86 | 351 | 2.0 | 9.0 | 0.00 | 0.01 | 0.01 | 57 | 1009.8 |
| 20260904193921 | 86 | 1 | 1.0 | 9.0 | 0.00 | 0.01 | 0.01 | 58 | 1009.7 |
| 20260904193614 | 86 | 325 | 2.0 | 5.0 | 0.00 | 0.01 | 0.01 | 57 | 1009.8 |
| 20260904193425 | 86 | 316 | 3.0 | 5.0 | 0.00 | 0.01 | 0.01 | 57 | 1009.8 |
| 20260904193119 | 86 | 289 | 2.0 | 5.0 | 0.00 | 0.01 | 0.01 | 55 | 1009.9 |
| 20260904192904 | 86 | 291 | 2.0 | 5.0 | 0.00 | 0.01 | 0.01 | 58 | 1010.0 |
| 20260904192617 | 86 | 267 | 2.0 | 5.0 | 0.00 | 0.01 | 0.01 | 57 | 1010.0 |
| 20260904192445 | 86 | 346 | 1.0 | 5.0 | 0.00 | 0.01 | 0.01 | 57 | 1009.9 |
| 20260904192122 | 86 | 356 | 2.0 | 5.0 | 0.00 | 0.01 | 0.01 | 58 | 1009.9 |
| 20260904191907 | 86 | 23 | 2.0 | 4.0 | 0.00 | 0.01 | 0.01 | 57 | 1009.9 |
| 20260904191627 | 86 | 275 | 2.0 | 6.0 | 0.00 | 0.01 | 0.01 | 58 | 1009.9 |
| 20260904191405 | 86 | 331 | 1.0 | 8.0 | 0.00 | 0.01 | 0.01 | 58 | 1009.9 |
| 20260904191106 | 86 | 356 | 3.0 | 8.0 | 0.00 | 0.01 | 0.01 | 56 | 1009.9 |
| 20260904190910 | 86 | 356 | 3.0 | 8.0 | 0.00 | 0.01 | 0.01 | 56 | 1009.9 |
| 20260904190604 | 86 | 14 | 2.0 | 9.0 | 0.00 | 0.01 | 0.01 | 58 | 1010.0 |
| 20260904190409 | 86 | 252 | 3.0 | 9.0 | 0.00 | 0.01 | 0.01 | 56 | 1010.0 |
| 20260904190129 | 86 | 243 | 2.0 | 9.0 | 0.00 | 0.01 | 0.01 | 56 | 1010.1 |
| 20260904185928 | 86 | 287 | 2.0 | 6.0 | 0.00 | 0.01 | 0.01 | 59 | 1010.1 |
| 20260904185605 | 85 | 7 | 1.0 | 9.0 | 0.00 | 0.01 | 0.01 | 59 | 1010.2 |
| 20260904185406 | 85 | 11 | 3.0 | 9.0 | 0.00 | 0.01 | 0.01 | 56 | 1010.2 |
| 20260904185105 | 85 | 307 | 1.0 | 9.0 | 0.00 | 0.01 | 0.01 | 57 | 1010.3 |
| 20260904184911 | 85 | 248 | 2.0 | 9.0 | 0.00 | 0.01 | 0.01 | 57 | 1010.3 |
| 20260904184609 | 85 | 327 | 3.0 | 9.0 | 0.00 | 0.01 | 0.01 | 56 | 1010.3 |
| 20260904184410 | 86 | 351 | 2.0 | 9.0 | 0.00 | 0.01 | 0.01 | 56 | 1010.4 |
| 20260904184108 | 86 | 254 | 3.0 | 11.0 | 0.00 | 0.01 | 0.01 | 55 | 1010.4 |
| 20260904183909 | 86 | 245 | 3.0 | 11.0 | 0.00 | 0.01 | 0.01 | 56 | 1010.4 |
| 20260904183613 | 86 | 258 | 2.0 | 11.0 | 0.00 | 0.01 | 0.01 | 56 | 1010.4 |
| 20260904183411 | 86 | 356 | 4.0 | 11.0 | 0.00 | 0.01 | 0.01 | 55 | 1010.4 |
| 20260904183109 | 86 | 297 | 2.0 | 14.0 | 0.00 | 0.01 | 0.01 | 57 | 1010.4 |
| 20260904182910 | 86 | 356 | 4.0 | 14.0 | 0.00 | 0.01 | 0.01 | 55 | 1010.4 |
| 20260904182636 | 86 | 334 | 3.0 | 14.0 | 0.00 | 0.01 | 0.01 | 58 | 1010.5 |
| 20260904182416 | 86 | 212 | 4.0 | 12.0 | 0.00 | 0.01 | 0.01 | 56 | 1010.4 |
| 20260904182114 | 85 | 8 | 4.0 | 12.0 | 0.00 | 0.01 | 0.01 | 57 | 1010.4 |
| 20260904181914 | 86 | 198 | 5.0 | 12.0 | 0.00 | 0.01 | 0.01 | 57 | 1010.5 |
| 20260904181639 | 86 | 271 | 3.0 | 11.0 | 0.00 | 0.01 | 0.01 | 57 | 1010.4 |
| 20260904181418 | 86 | 346 | 3.0 | 13.0 | 0.00 | 0.01 | 0.01 | 58 | 1010.3 |
| 20260904181115 | 86 | 27 | 3.0 | 13.0 | 0.00 | 0.01 | 0.01 | 56 | 1010.3 |
| 20260904180922 | 86 | 255 | 4.0 | 13.0 | 0.00 | 0.01 | 0.01 | 56 | 1010.3 |
| 20260904180620 | 86 | 341 | 5.0 | 11.0 | 0.00 | 0.01 | 0.01 | 54 | 1010.4 |
| 20260904180421 | 86 | 319 | 4.0 | 10.0 | 0.00 | 0.01 | 0.01 | 57 | 1010.3 |
| 20260904180118 | 86 | 17 | 3.0 | 10.0 | 0.00 | 0.01 | 0.01 | 57 | 1010.3 |
| 20260904175944 | 86 | 1 | 2.0 | 10.0 | 0.00 | 0.01 | 0.01 | 59 | 1010.3 |
| 20260904175621 | 86 | 62 | 4.0 | 10.0 | 0.00 | 0.01 | 0.01 | 55 | 1010.2 |
| 20260904175419 | 86 | 254 | 3.0 | 9.0 | 0.00 | 0.01 | 0.01 | 59 | 1010.2 |
| 20260904175116 | 86 | 3 | 2.0 | 9.0 | 0.00 | 0.01 | 0.01 | 60 | 1010.2 |
| 20260904174923 | 85 | 2 | 2.0 | 9.0 | 0.00 | 0.01 | 0.01 | 58 | 1010.2 |
| 20260904174619 | 86 | 288 | 2.0 | 9.0 | 0.00 | 0.01 | 0.01 | 58 | 1010.1 |
| 20260904174419 | 86 | 295 | 3.0 | 15.0 | 0.00 | 0.01 | 0.01 | 58 | 1010.1 |
| 20260904174118 | 86 | 52 | 3.0 | 15.0 | 0.00 | 0.01 | 0.01 | 59 | 1010.2 |
| 20260904173917 | 86 | 4 | 3.0 | 15.0 | 0.00 | 0.01 | 0.01 | 59 | 1010.3 |
| 20260904173620 | 85 | 9 | 4.0 | 15.0 | 0.00 | 0.01 | 0.01 | 61 | 1010.3 |
| 20260904173419 | 85 | 13 | 2.0 | 15.0 | 0.00 | 0.01 | 0.01 | 61 | 1010.3 |
| 20260904173118 | 85 | 356 | 5.0 | 14.0 | 0.00 | 0.01 | 0.01 | 57 | 1010.3 |
| 20260904172919 | 85 | 13 | 4.0 | 13.0 | 0.00 | 0.01 | 0.01 | 58 | 1010.2 |
| 20260904172643 | 85 | 330 | 4.0 | 10.0 | 0.00 | 0.01 | 0.01 | 59 | 1010.2 |
| 20260904172422 | 85 | 296 | 2.0 | 13.0 | 0.00 | 0.01 | 0.01 | 62 | 1010.2 |
| 20260904172120 | 85 | 335 | 3.0 | 13.0 | 0.00 | 0.01 | 0.01 | 61 | 1010.2 |
| 20260904171948 | 84 | 346 | 4.0 | 13.0 | 0.00 | 0.01 | 0.01 | 61 | 1010.2 |
| 20260904171604 | 85 | 331 | 4.0 | 14.0 | 0.00 | 0.01 | 0.01 | 61 | 1010.2 |
| 20260904171405 | 85 | 14 | 4.0 | 14.0 | 0.00 | 0.01 | 0.01 | 62 | 1010.2 |
| 20260904171123 | 85 | 322 | 4.0 | 14.0 | 0.00 | 0.01 | 0.01 | 62 | 1010.3 |
| 20260904170903 | 85 | 13 | 4.0 | 13.0 | 0.00 | 0.01 | 0.01 | 62 | 1010.3 |
| 20260904170628 | 84 | 351 | 4.0 | 18.0 | 0.00 | 0.01 | 0.01 | 62 | 1010.2 |
| 20260904170408 | 84 | 35 | 4.0 | 18.0 | 0.00 | 0.01 | 0.01 | 61 | 1010.2 |
| 20260904170133 | 84 | 21 | 6.0 | 18.0 | 0.00 | 0.01 | 0.01 | 62 | 1010.2 |
| 20260904165912 | 84 | 346 | 7.0 | 12.0 | 0.00 | 0.01 | 0.01 | 61 | 1010.2 |
| 20260904165631 | 84 | 286 | 3.0 | 11.0 | 0.00 | 0.01 | 0.01 | 63 | 1010.3 |
| 20260904165417 | 84 | 312 | 6.0 | 16.0 | 0.00 | 0.01 | 0.01 | 62 | 1010.4 |
| 20260904165114 | 84 | 356 | 4.0 | 16.0 | 0.00 | 0.01 | 0.01 | 61 | 1010.3 |
| 20260904164914 | 84 | 50 | 4.0 | 16.0 | 0.00 | 0.01 | 0.01 | 63 | 1010.4 |
| 20260904164613 | 83 | 12 | 6.0 | 16.0 | 0.00 | 0.01 | 0.01 | 63 | 1010.4 |
| 20260904164414 | 83 | 351 | 7.0 | 14.0 | 0.00 | 0.01 | 0.01 | 63 | 1010.4 |
| 20260904164119 | 83 | 26 | 3.0 | 14.0 | 0.00 | 0.01 | 0.01 | 64 | 1010.4 |
| 20260904163919 | 83 | 322 | 2.0 | 14.0 | 0.00 | 0.01 | 0.01 | 64 | 1010.3 |
| 20260904163617 | 83 | 322 | 7.0 | 14.0 | 0.00 | 0.01 | 0.01 | 63 | 1010.4 |
| 20260904163418 | 82 | 29 | 5.0 | 15.0 | 0.00 | 0.01 | 0.01 | 65 | 1010.4 |
| 20260904163115 | 82 | 17 | 7.0 | 19.0 | 0.00 | 0.01 | 0.01 | 64 | 1010.4 |
| 20260904162916 | 82 | 21 | 7.0 | 19.0 | 0.00 | 0.01 | 0.01 | 64 | 1010.4 |
| 20260904162638 | 82 | 346 | 9.0 | 19.0 | 0.00 | 0.01 | 0.01 | 63 | 1010.3 |
| 20260904162422 | 82 | 23 | 7.0 | 15.0 | 0.00 | 0.01 | 0.01 | 64 | 1010.3 |
| 20260904162115 | 82 | 346 | 5.0 | 15.0 | 0.00 | 0.01 | 0.01 | 64 | 1010.4 |
| 20260904161926 | 82 | 19 | 8.0 | 17.0 | 0.00 | 0.01 | 0.01 | 63 | 1010.4 |
| 20260904161604 | 82 | 351 | 7.0 | 17.0 | 0.00 | 0.01 | 0.01 | 64 | 1010.4 |
| 20260904161404 | 82 | 7 | 8.0 | 17.0 | 0.00 | 0.01 | 0.01 | 63 | 1010.4 |
| 20260904161119 | 83 | 1 | 10.0 | 17.0 | 0.00 | 0.01 | 0.01 | 63 | 1010.5 |
| 20260904160904 | 83 | 6 | 5.0 | 15.0 | 0.00 | 0.01 | 0.01 | 64 | 1010.5 |
| 20260904160624 | 83 | 341 | 7.0 | 15.0 | 0.00 | 0.01 | 0.01 | 64 | 1010.5 |
| 20260904160430 | 83 | 360 | 3.0 | 15.0 | 0.00 | 0.01 | 0.01 | 66 | 1010.5 |
| 20260904160103 | 83 | 2 | 5.0 | 15.0 | 0.00 | 0.01 | 0.01 | 64 | 1010.6 |
| 20260904155908 | 83 | 10 | 7.0 | 15.0 | 0.00 | 0.01 | 0.01 | 64 | 1010.5 |
| 20260904155629 | 83 | 6 | 6.0 | 12.0 | 0.00 | 0.01 | 0.01 | 65 | 1010.5 |
| 20260904155412 | 83 | 18 | 5.0 | 12.0 | 0.00 | 0.01 | 0.01 | 65 | 1010.5 |
| 20260904155105 | 83 | 19 | 5.0 | 13.0 | 0.00 | 0.01 | 0.01 | 65 | 1010.5 |
| 20260904154910 | 83 | 199 | 4.0 | 13.0 | 0.00 | 0.01 | 0.01 | 66 | 1010.5 |
| 20260904154605 | 83 | 324 | 3.0 | 13.0 | 0.00 | 0.01 | 0.01 | 65 | 1010.5 |
| 20260904154416 | 83 | 351 | 4.0 | 13.0 | 0.00 | 0.01 | 0.01 | 64 | 1010.6 |
| 20260904154110 | 83 | 247 | 2.0 | 15.0 | 0.00 | 0.01 | 0.01 | 65 | 1010.5 |
| 20260904153915 | 83 | 234 | 5.0 | 15.0 | 0.00 | 0.01 | 0.01 | 64 | 1010.5 |
| 20260904153609 | 83 | 2 | 3.0 | 15.0 | 0.01 | 0.01 | 0.01 | 65 | 1010.5 |
| 20260904153440 | 83 | 333 | 5.0 | 15.0 | 0.01 | 0.01 | 0.01 | 65 | 1010.6 |
| 20260904153134 | 83 | 25 | 5.0 | 12.0 | 0.01 | 0.01 | 0.01 | 68 | 1010.6 |
| 20260904152917 | 82 | 29 | 6.0 | 13.0 | 0.01 | 0.01 | 0.01 | 67 | 1010.6 |
| 20260904152617 | 82 | 4 | 5.0 | 16.0 | 0.01 | 0.01 | 0.01 | 68 | 1010.6 |
| 20260904152422 | 82 | 356 | 6.0 | 17.0 | 0.01 | 0.01 | 0.01 | 68 | 1010.7 |
| 20260904152116 | 81 | 360 | 8.0 | 17.0 | 0.01 | 0.01 | 0.01 | 68 | 1010.8 |
| 20260904151918 | 81 | 19 | 7.0 | 17.0 | 0.01 | 0.01 | 0.01 | 67 | 1010.8 |
| 20260904151619 | 82 | 8 | 9.0 | 17.0 | 0.01 | 0.01 | 0.01 | 66 | 1010.9 |
| 20260904151424 | 82 | 21 | 7.0 | 16.0 | 0.01 | 0.01 | 0.01 | 65 | 1010.9 |
| 20260904151110 | 83 | 2 | 5.0 | 12.0 | 0.01 | 0.01 | 0.01 | 68 | 1010.8 |
| 20260904150915 | 83 | 31 | 5.0 | 13.0 | 0.01 | 0.01 | 0.01 | 67 | 1010.7 |
| 20260904150635 | 82 | 15 | 2.0 | 13.0 | 0.01 | 0.01 | 0.01 | 68 | 1010.7 |
| 20260904150418 | 82 | 9 | 3.0 | 16.0 | 0.01 | 0.01 | 0.01 | 68 | 1010.7 |
| 20260904150112 | 82 | 356 | 4.0 | 16.0 | 0.01 | 0.01 | 0.01 | 68 | 1010.7 |
| 20260904145917 | 82 | 312 | 4.0 | 16.0 | 0.01 | 0.01 | 0.01 | 68 | 1010.7 |
| 20260904145612 | 83 | 1 | 4.0 | 16.0 | 0.01 | 0.01 | 0.01 | 68 | 1010.7 |
| 20260904145443 | 83 | 351 | 3.0 | 12.0 | 0.01 | 0.01 | 0.01 | 69 | 1010.7 |
| 20260904145116 | 83 | 21 | 2.0 | 12.0 | 0.01 | 0.01 | 0.01 | 69 | 1010.7 |
| 20260904144920 | 82 | 321 | 4.0 | 12.0 | 0.01 | 0.01 | 0.01 | 69 | 1010.7 |
| 20260904144620 | 82 | 351 | 4.0 | 11.0 | 0.01 | 0.01 | 0.01 | 69 | 1010.7 |
| 20260904144425 | 82 | 260 | 3.0 | 11.0 | 0.01 | 0.01 | 0.01 | 70 | 1010.6 |
| 20260904144119 | 82 | 360 | 2.0 | 11.0 | 0.01 | 0.01 | 0.01 | 70 | 1010.7 |
| 20260904143904 | 82 | 274 | 5.0 | 11.0 | 0.01 | 0.01 | 0.01 | 70 | 1010.6 |
| 20260904143618 | 82 | 2 | 3.0 | 9.0 | 0.00 | 0.00 | 0.00 | 70 | 1010.6 |
| 20260904143430 | 82 | 24 | 2.0 | 8.0 | 0.00 | 0.00 | 0.00 | 70 | 1010.6 |
| 20260904143124 | 82 | 2 | 2.0 | 8.0 | 0.00 | 0.00 | 0.00 | 71 | 1010.6 |
| 20260904142908 | 82 | 356 | 2.0 | 9.0 | 0.00 | 0.00 | 0.00 | 70 | 1010.5 |
| 20260904142620 | 82 | 346 | 4.0 | 11.0 | 0.00 | 0.00 | 0.00 | 70 | 1010.5 |
| 20260904142404 | 81 | 5 | 3.0 | 11.0 | 0.00 | 0.00 | 0.00 | 70 | 1010.5 |
| 20260904142125 | 81 | 10 | 5.0 | 11.0 | 0.00 | 0.00 | 0.00 | 70 | 1010.5 |
| 20260904141908 | 81 | 10 | 7.0 | 11.0 | 0.00 | 0.00 | 0.00 | 69 | 1010.5 |
| 20260904141630 | 81 | 20 | 5.0 | 10.0 | 0.00 | 0.00 | 0.00 | 69 | 1010.5 |
| 20260904141406 | 81 | 2 | 3.0 | 8.0 | 0.00 | 0.00 | 0.00 | 71 | 1010.6 |
| 20260904141106 | 81 | 10 | 2.0 | 9.0 | 0.00 | 0.00 | 0.00 | 72 | 1010.6 |
| 20260904140927 | 81 | 356 | 3.0 | 9.0 | 0.00 | 0.00 | 0.00 | 72 | 1010.5 |
| 20260904140604 | 81 | 341 | 4.0 | 9.0 | 0.00 | 0.00 | 0.00 | 71 | 1010.5 |
| 20260904140405 | 81 | 13 | 3.0 | 9.0 | 0.00 | 0.00 | 0.00 | 72 | 1010.5 |
| 20260904140107 | 81 | 10 | 5.0 | 9.0 | 0.00 | 0.00 | 0.00 | 71 | 1010.6 |
| 20260904135906 | 81 | 13 | 4.0 | 9.0 | 0.00 | 0.00 | 0.00 | 72 | 1010.6 |
| 20260904135625 | 80 | 23 | 4.0 | 8.0 | 0.00 | 0.00 | 0.00 | 74 | 1010.6 |
| 20260904135429 | 80 | 13 | 3.0 | 11.0 | 0.00 | 0.00 | 0.00 | 74 | 1010.5 |
| 20260904135128 | 80 | 3 | 3.0 | 11.0 | 0.00 | 0.00 | 0.00 | 73 | 1010.5 |
| 20260904134908 | 80 | 356 | 3.0 | 11.0 | 0.00 | 0.00 | 0.00 | 74 | 1010.5 |
| 20260904134606 | 80 | 1 | 6.0 | 11.0 | 0.00 | 0.00 | 0.00 | 74 | 1010.4 |
| 20260904134407 | 80 | 8 | 3.0 | 10.0 | 0.00 | 0.00 | 0.00 | 75 | 1010.5 |
| 20260904134111 | 80 | 11 | 3.0 | 10.0 | 0.00 | 0.00 | 0.00 | 76 | 1010.5 |
| 20260904133912 | 79 | 360 | 5.0 | 10.0 | 0.00 | 0.00 | 0.00 | 75 | 1010.5 |
| 20260904133610 | 79 | 356 | 4.0 | 10.0 | 0.00 | 0.00 | 0.00 | 76 | 1010.6 |
| 20260904133437 | 79 | 293 | 4.0 | 10.0 | 0.00 | 0.00 | 0.00 | 76 | 1010.6 |
| 20260904133115 | 79 | 10 | 6.0 | 10.0 | 0.00 | 0.00 | 0.00 | 76 | 1010.6 |
| 20260904132937 | 80 | 8 | 5.0 | 10.0 | 0.00 | 0.00 | 0.00 | 76 | 1010.6 |
| 20260904132621 | 80 | 2 | 4.0 | 8.0 | 0.00 | 0.00 | 0.00 | 78 | 1010.6 |
| 20260904132418 | 79 | 7 | 3.0 | 8.0 | 0.00 | 0.00 | 0.00 | 79 | 1010.6 |
| 20260904132117 | 79 | 351 | 3.0 | 8.0 | 0.00 | 0.00 | 0.00 | 78 | 1010.5 |
| 20260904131917 | 79 | 45 | 1.0 | 8.0 | 0.00 | 0.00 | 0.00 | 79 | 1010.5 |
| 20260904131616 | 79 | 2 | 3.0 | 9.0 | 0.00 | 0.00 | 0.00 | 78 | 1010.5 |
| 20260904131423 | 79 | 4 | 4.0 | 9.0 | 0.00 | 0.00 | 0.00 | 79 | 1010.5 |
| 20260904131120 | 79 | 346 | 2.0 | 9.0 | 0.00 | 0.00 | 0.00 | 79 | 1010.5 |
| 20260904130921 | 79 | 346 | 4.0 | 9.0 | 0.00 | 0.00 | 0.00 | 78 | 1010.5 |
| 20260904130620 | 79 | 30 | 3.0 | 8.0 | 0.00 | 0.00 | 0.00 | 79 | 1010.5 |
| 20260904130448 | 79 | 356 | 4.0 | 8.0 | 0.00 | 0.00 | 0.00 | 79 | 1010.5 |
| 20260904130122 | 78 | 8 | 2.0 | 10.0 | 0.00 | 0.00 | 0.00 | 80 | 1010.5 |
| 20260904125922 | 78 | 2 | 4.0 | 11.0 | 0.00 | 0.00 | 0.00 | 79 | 1010.6 |
| 20260904125620 | 78 | 356 | 3.0 | 11.0 | 0.00 | 0.00 | 0.00 | 80 | 1010.6 |
| 20260904125427 | 78 | 2 | 5.0 | 11.0 | 0.00 | 0.00 | 0.00 | 79 | 1010.5 |
| 20260904125125 | 78 | 356 | 4.0 | 10.0 | 0.00 | 0.00 | 0.00 | 80 | 1010.5 |
| 20260904124906 | 78 | 17 | 3.0 | 10.0 | 0.00 | 0.00 | 0.00 | 80 | 1010.5 |
| 20260904124604 | 78 | 356 | 5.0 | 10.0 | 0.00 | 0.00 | 0.00 | 80 | 1010.5 |
| 20260904124452 | 78 | 351 | 3.0 | 8.0 | 0.00 | 0.00 | 0.00 | 81 | 1010.5 |
| 20260904124128 | 77 | 11 | 2.0 | 10.0 | 0.00 | 0.00 | 0.00 | 82 | 1010.5 |
| 20260904123908 | 77 | 13 | 4.0 | 10.0 | 0.00 | 0.00 | 0.00 | 81 | 1010.5 |
| 20260904123604 | 77 | 26 | 3.0 | 10.0 | 0.00 | 0.00 | 0.00 | 82 | 1010.5 |
| 20260904123414 | 77 | 9 | 5.0 | 10.0 | 0.00 | 0.00 | 0.00 | 81 | 1010.6 |
| 20260904123111 | 77 | 2 | 1.0 | 8.0 | 0.00 | 0.00 | 0.00 | 82 | 1010.5 |
| 20260904122911 | 77 | 2 | 3.0 | 8.0 | 0.00 | 0.00 | 0.00 | 82 | 1010.5 |
| 20260904122609 | 77 | 356 | 4.0 | 8.0 | 0.00 | 0.00 | 0.00 | 82 | 1010.5 |
| 20260904122411 | 77 | 13 | 3.0 | 6.0 | 0.00 | 0.00 | 0.00 | 83 | 1010.5 |
| 20260904122107 | 77 | 356 | 3.0 | 6.0 | 0.00 | 0.00 | 0.00 | 83 | 1010.5 |
| 20260904121913 | 77 | 351 | 2.0 | 6.0 | 0.00 | 0.00 | 0.00 | 84 | 1010.4 |
| 20260904121611 | 77 | 10 | 3.0 | 6.0 | 0.00 | 0.00 | 0.00 | 84 | 1010.4 |
| 20260904121412 | 76 | 346 | 2.0 | 6.0 | 0.00 | 0.00 | 0.00 | 85 | 1010.3 |
| 20260904121110 | 76 | 360 | 2.0 | 4.0 | 0.00 | 0.00 | 0.00 | 86 | 1010.3 |
| 20260904120917 | 76 | 356 | 1.0 | 6.0 | 0.00 | 0.00 | 0.00 | 86 | 1010.2 |
| 20260904120615 | 76 | 356 | 3.0 | 6.0 | 0.00 | 0.00 | 0.00 | 86 | 1010.2 |
| 20260904120416 | 76 | 3 | 2.0 | 6.0 | 0.00 | 0.00 | 0.00 | 86 | 1010.2 |
| 20260904120114 | 76 | 2 | 3.0 | 6.0 | 0.00 | 0.00 | 0.00 | 86 | 1010.2 |
| 20260904115915 | 76 | 351 | 3.0 | 9.0 | 0.00 | 0.00 | 0.00 | 87 | 1010.2 |
| 20260904115619 | 76 | 335 | 2.0 | 9.0 | 0.00 | 0.00 | 0.00 | 88 | 1010.2 |
| 20260904115420 | 76 | 337 | 4.0 | 9.0 | 0.00 | 0.00 | 0.00 | 87 | 1010.2 |
| 20260904115119 | 75 | 5 | 3.0 | 9.0 | 0.00 | 0.00 | 0.00 | 88 | 1010.2 |
| 20260904114919 | 75 | 12 | 3.0 | 9.0 | 0.00 | 0.00 | 0.00 | 88 | 1010.2 |
| 20260904114618 | 75 | 346 | 3.0 | 6.0 | 0.00 | 0.00 | 0.00 | 88 | 1010.2 |
| 20260904114425 | 75 | 360 | 3.0 | 6.0 | 0.00 | 0.00 | 0.00 | 88 | 1010.2 |
| 20260904114123 | 75 | 342 | 3.0 | 6.0 | 0.00 | 0.00 | 0.00 | 89 | 1010.2 |
| 20260904113923 | 75 | 360 | 2.0 | 3.0 | 0.00 | 0.00 | 0.00 | 90 | 1010.2 |
| 20260904113641 | 75 | 1 | 1.0 | 3.0 | 0.00 | 0.00 | 0.00 | 91 | 1010.2 |
| 20260904113427 | 75 | 1 | 1.0 | 3.0 | 0.00 | 0.00 | 0.00 | 91 | 1010.2 |
| 20260904113126 | 75 | 1 | 1.0 | 2.0 | 0.00 | 0.00 | 0.00 | 91 | 1010.2 |
| 20260904112906 | 75 | 1 | 0.0 | 2.0 | 0.00 | 0.00 | 0.00 | 92 | 1010.2 |
| 20260904112605 | 74 | 1 | 0.0 | 2.0 | 0.00 | 0.00 | 0.00 | 91 | 1010.2 |
| 20260904112433 | 74 | 1 | 0.0 | 2.0 | 0.00 | 0.00 | 0.00 | 91 | 1010.2 |
| 20260904112111 | 74 | 1 | 1.0 | 2.0 | 0.00 | 0.00 | 0.00 | 91 | 1010.1 |
| 20260904111911 | 74 | 1 | 1.0 | 2.0 | 0.00 | 0.00 | 0.00 | 91 | 1010.1 |
| 20260904111633 | 74 | 1 | 1.0 | 2.0 | 0.00 | 0.00 | 0.00 | 92 | 1009.9 |
| 20260904111444 | 74 | 1 | 1.0 | 2.0 | 0.00 | 0.00 | 0.00 | 92 | 1009.9 |
| 20260904111118 | 74 | 1 | 1.0 | 2.0 | 0.00 | 0.00 | 0.00 | 92 | 1009.9 |
| 20260904110922 | 74 | 1 | 1.0 | 2.0 | 0.00 | 0.00 | 0.00 | 92 | 1009.9 |
| 20260904110617 | 74 | 1 | 0.0 | 2.0 | 0.00 | 0.00 | 0.00 | 92 | 1009.9 |
| 20260904110422 | 74 | 1 | 1.0 | 2.0 | 0.00 | 0.00 | 0.00 | 92 | 1009.9 |
| 20260904110117 | 74 | 1 | 0.0 | 2.0 | 0.00 | 0.00 | 0.00 | 92 | 1010.0 |
| 20260904105928 | 74 | 1 | 0.0 | 3.0 | 0.00 | 0.00 | 0.00 | 92 | 1009.9 |
| 20260904105622 | 74 | 1 | 0.0 | 3.0 | 0.00 | 0.00 | 0.00 | 92 | 1009.9 |
| 20260904105407 | 74 | 1 | 0.0 | 4.0 | 0.00 | 0.00 | 0.00 | 92 | 1010.0 |
| 20260904105122 | 74 | 1 | 1.0 | 9.0 | 0.00 | 0.00 | 0.00 | 92 | 1010.0 |
| 20260904104906 | 74 | 1 | 1.0 | 9.0 | 0.00 | 0.00 | 0.00 | 92 | 1010.0 |
| 20260904104627 | 74 | 1 | 3.0 | 9.0 | 0.00 | 0.00 | 0.00 | 93 | 1009.9 |
| 20260904104406 | 73 | 13 | 3.0 | 9.0 | 0.00 | 0.00 | 0.00 | 93 | 1009.9 |
| 20260904104106 | 73 | 356 | 3.0 | 6.0 | 0.00 | 0.00 | 0.00 | 92 | 1009.9 |
| 20260904103911 | 73 | 12 | 2.0 | 6.0 | 0.00 | 0.00 | 0.00 | 93 | 1009.9 |
| 20260904103605 | 73 | 13 | 2.0 | 9.0 | 0.00 | 0.00 | 0.00 | 93 | 1009.8 |
| 20260904103411 | 73 | 329 | 2.0 | 9.0 | 0.00 | 0.00 | 0.00 | 93 | 1009.8 |